EW5657 Weather Reports


time (UTC)temp
F
wind
direction
speed
knots
gust
knots
rain 1hr
in
rain 24hr
in
rain mn
in
humidity
%
barometer
mb
20260505230754 60 327 1.7 7.0 0.00 0.00 0.00 63 1021.3
20260505230255 60 308 1.7 6.1 0.00 0.00 0.00 64 1021.3
20260505225755 60 310 0.9 6.1 0.00 0.00 0.00 64 1021.3
20260505225254 60 310 1.7 6.1 0.00 0.00 0.00 65 1021.4
20260505224754 59 314 1.7 6.1 0.00 0.00 0.00 64 1021.4
20260505224253 59 322 2.6 7.8 0.00 0.00 0.00 65 1021.4
20260505223754 59 310 3.5 7.8 0.00 0.00 0.00 65 1021.4
20260505223251 59 326 2.6 7.0 0.00 0.00 0.00 65 1021.4
20260505222803 59 329 2.6 8.7 0.00 0.00 0.00 65 1021.4
20260505222752 59 338 2.6 5.2 0.00 0.00 0.00 65 1021.4
20260505222255 59 322 2.6 8.7 0.00 0.00 0.00 65 1021.4
20260505221252 59 309 2.6 8.7 0.00 0.00 0.00 65 1021.4
20260505220752 59 297 2.6 7.8 0.00 0.00 0.00 65 1021.5
20260505220251 59 314 2.6 6.1 0.00 0.00 0.00 66 1021.5
20260505215753 59 340 2.6 6.1 0.00 0.00 0.00 65 1021.5
20260505215252 59 307 2.6 7.0 0.00 0.00 0.00 66 1021.4
20260505214749 59 300 2.6 7.0 0.00 0.00 0.00 66 1021.4
20260505214249 59 317 2.6 6.1 0.00 0.00 0.00 66 1021.4
20260505213748 59 315 1.7 7.8 0.00 0.00 0.00 65 1021.4
20260505213248 59 300 2.6 7.8 0.00 0.00 0.00 65 1021.4
20260505212749 59 306 1.7 7.0 0.00 0.00 0.00 65 1021.3
20260505212245 59 310 1.7 6.1 0.00 0.00 0.00 65 1021.4
20260505211747 59 310 1.7 6.1 0.00 0.00 0.00 65 1021.3
20260505211246 59 305 2.6 7.0 0.00 0.00 0.00 65 1021.3
20260505210747 59 302 2.6 7.0 0.00 0.00 0.00 66 1021.4
20260505210247 59 314 2.6 8.7 0.00 0.00 0.00 66 1021.3
20260505205746 59 308 2.6 8.7 0.00 0.00 0.00 66 1021.3
20260505205245 59 306 2.6 7.0 0.00 0.00 0.00 66 1021.4
20260505204745 59 310 2.6 7.8 0.00 0.00 0.00 66 1021.4
20260505204245 59 311 2.6 7.8 0.00 0.00 0.00 66 1021.4
20260505203749 59 310 2.6 7.8 0.00 0.00 0.00 66 1021.4
20260505203743 59 316 2.6 7.0 0.00 0.00 0.00 66 1021.4
20260505202745 59 316 1.7 7.8 0.00 0.00 0.00 66 1021.5
20260505202243 59 314 1.7 4.3 0.00 0.00 0.00 66 1021.4
20260505201743 59 316 1.7 4.3 0.00 0.00 0.00 66 1021.5
20260505201241 59 311 2.6 4.3 0.00 0.00 0.00 66 1021.4
20260505200749 59 309 0.9 4.3 0.00 0.00 0.00 66 1021.4
20260505200741 59 320 1.7 4.3 0.00 0.00 0.00 66 1021.4
20260505195741 59 308 0.9 4.3 0.00 0.00 0.00 66 1021.4
20260505195241 59 308 1.7 4.3 0.00 0.00 0.00 66 1021.4
20260505194750 59 317 2.6 7.0 0.00 0.00 0.00 66 1021.4
20260505194743 59 308 1.7 4.3 0.00 0.00 0.00 66 1021.4
20260505193741 59 312 1.7 7.0 0.00 0.00 0.00 66 1021.4
20260505193242 59 315 1.7 4.3 0.00 0.00 0.00 66 1021.4
20260505192741 59 316 1.7 4.3 0.00 0.00 0.00 66 1021.4
20260505192241 59 315 0.9 3.5 0.00 0.00 0.00 66 1021.4
20260505191743 59 314 1.7 3.5 0.00 0.00 0.00 66 1021.5
20260505191249 59 314 1.7 4.3 0.00 0.00 0.00 66 1021.4
20260505191241 59 314 1.7 4.3 0.00 0.00 0.00 66 1021.4
20260505190910 59 316 0.9 3.5 0.00 0.00 0.00 67 1021.5
20260505190241 59 315 0.9 3.5 0.00 0.00 0.00 66 1021.4
20260505185241 59 316 0.9 3.5 0.00 0.00 0.00 66 1021.5
20260505184741 59 316 0.9 2.6 0.00 0.00 0.00 67 1021.4
20260505184250 59 316 0.9 3.5 0.00 0.00 0.00 67 1021.5
20260505184241 59 316 0.9 3.5 0.00 0.00 0.00 67 1021.4
20260505183741 59 316 1.7 3.5 0.00 0.00 0.00 67 1021.5
20260505183241 59 317 0.9 2.6 0.00 0.00 0.00 67 1021.5
20260505182241 59 317 0.9 2.6 0.00 0.00 0.00 68 1021.5
20260505181743 59 317 0.9 1.7 0.00 0.00 0.00 67 1021.5
20260505181241 59 317 0.9 2.6 0.00 0.00 0.00 67 1021.5
20260505180904 59 317 0.9 3.5 0.00 0.00 0.00 67 1021.5
20260505175736 59 318 1.7 4.3 0.00 0.00 0.00 67 1021.5
20260505175234 59 318 1.7 4.3 0.00 0.00 0.00 67 1021.5
20260505174739 59 317 0.9 2.6 0.00 0.00 0.00 67 1021.5
20260505174733 59 318 0.9 3.5 0.00 0.00 0.00 67 1021.6
20260505173733 59 317 0.9 2.6 0.00 0.00 0.00 67 1021.6
20260505173233 59 317 0.9 2.6 0.00 0.00 0.00 67 1021.6
20260505172731 59 317 0.9 4.3 0.00 0.00 0.00 67 1021.7
20260505172230 59 317 1.7 4.3 0.00 0.00 0.00 67 1021.7
20260505171733 59 311 1.7 3.5 0.00 0.00 0.00 67 1021.8
20260505171232 59 311 1.7 3.5 0.00 0.00 0.00 67 1021.9
20260505170732 59 311 1.7 3.5 0.00 0.00 0.00 67 1021.9
20260505170231 59 311 1.7 3.5 0.00 0.00 0.00 67 1021.9
20260505165732 59 312 0.9 3.5 0.00 0.00 0.00 67 1021.9
20260505165231 59 311 0.9 3.5 0.00 0.00 0.00 67 1021.9
20260505164731 59 311 1.7 3.5 0.00 0.00 0.00 67 1021.9
20260505164231 59 311 1.7 4.3 0.00 0.00 0.00 67 1022.0
20260505163730 59 310 1.7 4.3 0.00 0.00 0.00 68 1022.0
20260505163229 59 310 1.7 3.5 0.00 0.00 0.00 68 1022.1
20260505162728 59 310 1.7 4.3 0.00 0.00 0.00 68 1022.0
20260505162230 59 310 1.7 6.1 0.00 0.00 0.00 68 1022.1
20260505161730 59 312 2.6 6.1 0.00 0.00 0.00 69 1022.1
20260505161230 59 313 2.6 7.0 0.00 0.00 0.00 70 1022.2
20260505160730 59 339 1.7 7.0 0.00 0.00 0.00 71 1022.2
20260505160228 59 278 0.9 6.1 0.00 0.00 0.00 73 1022.2
20260505152729 59 270 0.0 1.7 0.00 0.00 0.00 74 1022.5
20260505152227 59 270 0.0 1.7 0.00 0.00 0.00 75 1022.6
20260505151727 59 270 0.9 1.7 0.00 0.00 0.00 74 1022.7
20260505151228 59 270 0.0 2.6 0.00 0.00 0.00 74 1022.6
20260505150727 59 270 0.0 2.6 0.00 0.00 0.00 74 1022.8
20260505150227 59 270 0.9 2.6 0.00 0.00 0.00 74 1022.8
20260505124717 60 256 0.0 1.7 0.00 0.00 0.00 73 1023.2
20260505124217 60 256 0.0 1.7 0.00 0.00 0.00 73 1023.2
20260505123717 60 256 0.0 0.9 0.00 0.00 0.00 73 1023.3
20260505123223 60 256 0.0 1.7 0.00 0.00 0.00 73 1023.3
20260505123216 60 256 0.0 2.6 0.00 0.00 0.00 73 1023.3
20260505122716 60 256 0.0 2.6 0.00 0.00 0.00 73 1023.3
20260505122341 60 256 0.0 1.7 0.00 0.00 0.00 73 1023.3
20260505121218 60 256 0.0 1.7 0.00 0.00 0.00 73 1023.3
20260505120716 60 256 0.0 1.7 0.00 0.00 0.00 72 1023.4
20260505120216 60 256 0.0 0.9 0.00 0.00 0.00 72 1023.3
20260505115715 60 256 0.0 1.7 0.00 0.00 0.00 72 1023.4
20260505115215 60 256 0.0 1.7 0.00 0.00 0.00 72 1023.4
20260505114715 60 256 0.0 1.7 0.00 0.00 0.00 73 1023.4
20260505114214 60 256 0.0 0.9 0.00 0.00 0.00 72 1023.4
20260505113713 60 256 0.0 4.3 0.00 0.00 0.00 72 1023.4
20260505113215 60 256 0.0 4.3 0.00 0.00 0.00 72 1023.3
20260505112723 60 269 0.0 3.5 0.00 0.00 0.00 71 1023.3
20260505112715 60 269 0.9 3.5 0.00 0.00 0.00 72 1023.3
20260505112213 60 270 0.0 3.5 0.00 0.00 0.00 72 1023.3
20260505111213 60 269 0.0 3.5 0.00 0.00 0.00 71 1023.4
20260505110712 60 269 0.0 2.6 0.00 0.00 0.00 70 1023.4
20260505110211 60 269 0.9 3.5 0.00 0.00 0.00 70 1023.4
20260505102211 61 262 0.0 1.7 0.00 0.00 0.00 71 1023.2
20260505101709 61 263 0.0 1.7 0.00 0.00 0.00 71 1023.3
20260505101209 61 263 0.0 2.6 0.00 0.00 0.00 71 1023.3
20260505100707 61 263 0.9 3.5 0.00 0.00 0.00 70 1023.3
20260505100207 61 263 0.0 3.5 0.00 0.00 0.00 70 1023.3
20260505095705 61 278 0.0 2.6 0.00 0.00 0.00 69 1023.2
20260505095206 61 278 0.0 2.6 0.00 0.00 0.00 69 1023.2
20260505094705 61 280 0.0 1.7 0.00 0.00 0.00 68 1023.2
20260505094205 61 281 0.0 1.7 0.00 0.00 0.00 67 1023.2
20260505093705 61 281 0.0 1.7 0.00 0.00 0.00 66 1023.2
20260505093205 61 281 0.9 5.2 0.00 0.00 0.00 65 1023.2
20260505092705 61 281 0.9 5.2 0.00 0.00 0.00 65 1023.2
20260505092213 61 278 1.7 5.2 0.00 0.00 0.00 65 1023.2
20260505092207 61 279 0.9 5.2 0.00 0.00 0.00 65 1023.2
20260505091205 61 274 2.6 5.2 0.00 0.00 0.00 65 1023.2
20260505090705 61 273 1.7 5.2 0.00 0.00 0.00 65 1023.2
20260505090205 61 268 0.9 5.2 0.00 0.00 0.00 65 1023.1
20260505085705 61 264 0.9 3.5 0.00 0.00 0.00 65 1023.1
20260505085206 61 264 0.9 5.2 0.00 0.00 0.00 65 1023.1
20260505084712 61 254 0.9 2.6 0.00 0.00 0.00 66 1023.0
20260505084705 61 263 1.7 5.2 0.00 0.00 0.00 65 1023.0
20260505084207 61 259 1.7 4.3 0.00 0.00 0.00 66 1023.0
20260505083205 61 254 0.9 2.6 0.00 0.00 0.00 67 1022.9
20260505082707 61 254 0.9 3.5 0.00 0.00 0.00 67 1022.9
20260505082213 60 251 0.0 1.7 0.00 0.00 0.00 69 1022.8
20260505082207 61 253 0.9 3.5 0.00 0.00 0.00 68 1022.9
20260505081831 60 251 0.0 1.7 0.00 0.00 0.00 70 1022.7
20260505080705 61 251 0.0 1.7 0.00 0.00 0.00 70 1022.6
20260505080207 61 251 0.0 0.0 0.00 0.00 0.00 70 1022.6
20260505075705 61 251 0.0 0.0 0.00 0.00 0.00 70 1022.5
20260505075210 61 251 0.0 0.0 0.00 0.00 0.00 70 1022.5
20260505075206 61 251 0.0 0.0 0.00 0.00 0.00 69 1022.5
20260505074829 61 251 0.0 0.9 0.00 0.00 0.00 69 1022.4
20260505074329 61 251 0.0 0.9 0.00 0.00 0.00 69 1022.4
20260505073207 61 251 0.0 0.9 0.00 0.00 0.00 70 1022.3
20260505072711 61 251 0.0 0.9 0.00 0.00 0.00 70 1022.3
20260505072707 61 251 0.0 0.9 0.00 0.00 0.00 70 1022.3
20260505071705 61 251 0.0 0.9 0.00 0.00 0.00 70 1022.3
20260505071211 61 251 0.0 1.7 0.00 0.00 0.00 70 1022.2
20260505071206 61 251 0.0 0.9 0.00 0.00 0.00 70 1022.2
20260505070205 61 251 0.0 1.7 0.00 0.00 0.00 70 1022.1
20260505065705 61 251 0.0 1.7 0.00 0.00 0.00 70 1022.1
20260505065205 61 251 0.0 1.7 0.00 0.00 0.00 70 1022.1
20260505064706 61 251 0.0 1.7 0.00 0.00 0.00 70 1022.0
20260505064205 61 251 0.0 1.7 0.00 0.00 0.00 70 1022.1
20260505063702 61 251 0.0 2.6 0.00 0.01 0.00 70 1022.0
20260505063203 61 251 0.0 2.6 0.00 0.01 0.00 69 1021.9
20260505062703 61 251 0.0 2.6 0.00 0.01 0.00 70 1021.9
20260505062205 61 250 0.0 2.6 0.00 0.01 0.00 70 1021.9
20260505061703 61 250 0.9 4.3 0.00 0.01 0.00 71 1021.9
20260505061210 61 252 0.9 3.5 0.00 0.01 0.00 70 1021.9
20260505061202 61 250 0.9 4.3 0.00 0.01 0.00 70 1021.9
20260505060830 61 256 0.0 1.7 0.00 0.01 0.00 69 1021.8
20260505060331 61 256 0.0 1.7 0.00 0.01 0.00 70 1021.8
20260505055832 61 256 0.9 2.6 0.00 0.01 0.00 69 1021.7
20260505054704 61 256 0.0 2.6 0.00 0.01 0.00 69 1021.7
20260505054200 61 256 0.9 3.5 0.00 0.01 0.00 68 1021.6
20260505053659 61 256 0.9 3.5 0.00 0.01 0.00 68 1021.6
20260505053158 61 256 0.9 2.6 0.00 0.01 0.00 68 1021.5
20260505052657 61 256 0.9 3.5 0.00 0.01 0.00 68 1021.5
20260505052157 62 257 0.9 4.3 0.00 0.01 0.00 68 1021.4
20260505051656 62 260 0.9 4.3 0.00 0.01 0.00 68 1021.4
20260505051202 62 262 1.7 6.1 0.00 0.01 0.00 68 1021.3
20260505051156 62 261 0.9 6.1 0.00 0.01 0.00 69 1021.4
20260505050202 62 237 1.7 5.2 0.00 0.01 0.00 68 1021.2
20260505050156 62 262 1.7 6.1 0.00 0.01 0.00 67 1021.3
20260505041654 62 272 1.7 4.3 0.00 0.01 0.00 67 1021.0
20260505041156 62 207 1.7 4.3 0.00 0.01 0.00 67 1021.0
20260505040656 62 212 1.7 7.0 0.00 0.01 0.00 66 1020.9
20260505040154 62 206 1.7 7.0 0.00 0.01 0.00 66 1020.9
20260505035652 62 244 0.9 4.3 0.00 0.01 0.00 67 1020.9
20260505035155 62 227 1.7 4.3 0.00 0.01 0.00 67 1020.8
20260505034652 62 224 1.7 4.3 0.00 0.01 0.00 67 1020.8
20260505034153 62 210 1.7 4.3 0.00 0.01 0.00 67 1020.8
20260505033652 62 240 1.7 4.3 0.00 0.01 0.00 67 1020.9
20260505033154 61 245 1.7 7.0 0.00 0.01 0.00 67 1020.9
20260505032652 62 202 0.9 7.0 0.00 0.01 0.00 67 1020.8
20260505032155 61 226 0.9 4.3 0.00 0.01 0.00 68 1020.9
20260505031653 61 224 1.7 4.3 0.00 0.01 0.00 67 1020.9
20260505031154 61 224 1.7 5.2 0.00 0.01 0.00 68 1020.9
20260505030652 61 203 1.7 5.2 0.00 0.01 0.00 67 1021.0
20260505030150 61 235 1.7 9.6 0.00 0.01 0.00 67 1020.9
20260505025650 61 212 1.7 9.6 0.00 0.01 0.00 67 1020.9
20260505025150 61 218 1.7 7.0 0.00 0.01 0.00 67 1021.0
20260505024652 61 208 1.7 7.0 0.00 0.01 0.00 67 1021.1
20260505024148 61 245 1.7 6.1 0.00 0.01 0.00 67 1021.1
20260505023651 61 246 1.7 7.8 0.00 0.01 0.00 67 1021.0
20260505023148 62 215 1.7 7.8 0.00 0.01 0.00 68 1021.1
20260505022652 61 207 1.7 7.0 0.00 0.01 0.00 67 1021.1
20260505022647 61 253 1.7 6.1 0.00 0.01 0.00 66 1021.1
20260505021644 62 253 1.7 6.1 0.00 0.01 0.00 66 1021.1
20260505021153 62 253 0.9 3.5 0.00 0.01 0.00 65 1021.2
20260505021148 62 223 0.9 3.5 0.00 0.01 0.00 66 1021.1
20260505020147 62 247 0.9 5.2 0.00 0.01 0.00 65 1021.2
20260505015643 62 248 1.7 5.2 0.00 0.01 0.00 65 1021.3
20260505015145 62 241 1.7 4.3 0.00 0.01 0.00 65 1021.3
20260505014650 61 313 1.7 6.1 0.00 0.01 0.00 65 1021.4
20260505014644 61 313 1.7 6.1 0.00 0.01 0.00 66 1021.3
20260505013642 61 291 0.9 5.2 0.00 0.01 0.00 67 1021.4
20260505013142 60 269 0.9 8.7 0.00 0.01 0.00 67 1021.5
20260505012642 60 269 1.7 8.7 0.00 0.01 0.00 66 1021.6
20260505012143 60 208 0.9 5.2 0.00 0.01 0.00 67 1021.6
20260505011642 60 194 0.9 6.1 0.00 0.01 0.00 68 1021.6
20260505011142 60 251 0.9 6.1 0.00 0.01 0.00 68 1021.5
20260505010642 60 253 1.7 6.1 0.00 0.01 0.00 69 1021.6
20260505010149 60 232 1.7 6.1 0.00 0.01 0.00 70 1021.4
20260505010143 60 258 1.7 6.1 0.00 0.01 0.00 69 1021.5
20260505005144 60 254 1.7 6.1 0.00 0.01 0.00 70 1021.4
20260505004642 60 262 0.9 6.1 0.00 0.01 0.00 71 1021.3
20260505004142 60 243 0.9 7.8 0.00 0.01 0.00 72 1021.3
20260505003643 59 207 0.9 7.8 0.00 0.01 0.00 72 1021.2
20260505003143 59 274 0.9 6.1 0.00 0.01 0.00 72 1021.2
20260505002642 59 277 0.9 7.8 0.00 0.01 0.00 72 1021.2
20260505002143 60 329 0.9 8.7 0.00 0.01 0.00 72 1021.1
20260505001649 60 265 0.9 7.0 0.00 0.01 0.00 72 1021.0
20260505001644 60 230 0.9 8.7 0.00 0.01 0.00 72 1021.0
20260505001309 60 185 0.9 7.0 0.00 0.01 0.00 72 1021.0
20260505000151 60 245 1.7 7.8 0.00 0.01 0.00 74 1020.8
20260505000143 60 251 1.7 11.3 0.00 0.01 0.00 72 1020.9
20260504235642 60 248 1.7 11.3 0.00 0.01 0.00 73 1020.9
20260504235310 59 313 1.7 6.1 0.00 0.01 0.00 75 1020.8
20260504234144 59 272 1.7 5.2 0.00 0.01 0.00 76 1020.8
20260504233639 59 230 1.7 5.2 0.00 0.01 0.00 76 1020.8
20260504233145 59 266 0.9 6.1 0.00 0.01 0.00 77 1020.7
20260504233139 59 2 0.9 4.3 0.00 0.01 0.00 77 1020.8
20260504232141 58 269 1.7 6.1 0.00 0.01 0.00 78 1020.7
20260504231639 58 232 0.9 5.2 0.00 0.01 0.00 78 1020.7
20260504231136 58 276 0.9 5.2 0.00 0.01 0.00 78 1020.5